Temp
75 73 72 71 71 70 69 68 68 67 69 70 71 72 73 72 71 69 69 70 70 69 69 68 67 66 65 65 64 65 64 65 58 63 66 67 64 64 66 67 68 66 66
75 74 72 72 71 70 69 69 69 69 71 72 72 72 71 71 70 69 69 70 68 66 66 64 63 68 63 62 63 61 62 61 57 53 59 62 62 63 63 63 65 66 65
75 74 72 71 71 70 69 70 70 69 70 70 71 70 70 70 70 70 68 66 65 65 64 63 63 64 61 61 60 59 60 59 59 56 56 61 62 63 62 63 62 62 66
76 74 71 70 70 70 70 70 70 71 71 71 71 70 70 70 69 66 65 64 64 65 64 64 65 63 61 60 59 57 57 56 57 56 55 56 58 59 59 57 56 58 59
73 71 70 70 71 71 70 70 69 70 71 70 69 70 66 67 59 57 59 60 60 62 63 66 64 60 59 56 56 55 54 54 54 53 54 53 53 53 52 56 53 54 56
71 71 71 71 70 68 68 68 68 68 67 67 65 62 60 57 45 46 48 55 58 61 60 62 60 60 58 54 53 53 53 52 52 53 52 51 51 53 54 52 49 48 48
70 70 70 69 68 68 68 67 64 60 60 60 60 59 55 54 43 43 45 54 57 60 59 58 57 60 54 54 54 53 55 53 51 53 51 53 51 53 51 48 47 46 49
68 68 69 69 67 66 65 62 58 58 58 59 59 59 53 51 42 42 42 57 59 58 56 56 55 54 50 49 51 58 60 61 58 57 54 53 53 53 50 48 47 48 51
64 66 67 67 64 64 61 57 58 58 58 58 58 55 53 48 42 41 44 54 55 53 55 56 53 51 43 42 51 55 56 58 55 51 49 47 45 45 45 47 47 47 47
64 64 65 65 63 60 59 56 57 58 58 59 56 53 50 51 40 40 42 50 48 47 53 52 44 44 41 41 49 53 51 50 49 55 56 55 53 53 50 52 47 45 47
62 64 63 62 60 59 56 56 56 56 54 53 51 51 52 49 48 40 40 44 43 44 50 51 51 42 41 40 41 48 48 47 51 53 54 54 54 54 53 52 48 44 44
62 61 60 60 62 60 58 58 58 58 57 55 56 54 54 53 43 42 40 40 41 42 45 47 46 41 41 41 45 41 41 44 52 49 47 49 48 48 48 46 43 46 49
61 59 60 60 60 60 58 57 58 57 58 57 57 56 54 55 54 43 41 41 42 42 45 44 42 41 42 47 45 43 42 54 52 48 45 44 45 44 44 41 41 45 47
60 59 60 59 59 58 61 58 53 52 53 53 52 53 53 52 49 45 46 47 46 47 44 42 47 45 43 48 53 54 57 55 53 49 45 43 44 42 38 38 37 39 40
60 60 61 61 60 56 54 53 53 47 45 48 47 50 46 44 42 38 39 44 46 46 41 56 56 55 53 54 55 55 55 54 51 51 44 41 38 37 35 37 37 38 38
60 60 60 61 61 60 55 50 37 39 37 36 37 39 47 39 37 37 37 38 37 39 53 52 51 51 51 51 52 53 53 51 51 51 43 36 34 33 33 35 37 37 37
58 59 60 59 59 58 57 56 51 40 38 37 37 37 37 35 37 37 38 38 40 43 50 50 50 50 51 52 52 52 50 51 51 49 37 34 34 32 32 33 35 36 37
56 45 58 58 58 58 57 56 56 54 53 50 40 42 40 39 39 38 38 44 50 49 50 48 48 50 51 51 52 51 50 50 48 45 35 33 32 31 31 32 34 35 36
58 58 58 57 56 54 57 56 56 55 54 53 53 47 46 43 40 40 43 50 49 49 50 50 50 50 51 51 51 52 50 48 46 42 35 32 31 31 31 34 34 34 36
53 42 49 57 57 56 56 55 54 53 53 52 51 48 50 51 51 50 50 51 50 50 50 51 52 52 52 51 51 51 49 47 44 42 37 34 32 32 33 34 35 35 39
56 55 41 57 56 56 55 54 54 54 53 52 52 48 35 49 51 50 50 50 51 51 51 51 52 52 52 51 50 49 47 45 42 40 39 35 33 33 35 34 33 36 38
57 57 56 55 54 53 54 54 54 54 53 52 53 51 38 53 53 51 51 50 52 53 53 52 52 52 51 51 48 46 45 41 39 39 38 36 35 35 34 34 34 36 37
57 56 55 55 54 47 54 55 53 53 54 54 53 52 52 52 52 51 50 51 51 52 52 52 51 51 51 51 49 46 43 38 36 40 36 37 38 39 36 33 34 35 36
56 55 54 53 52 54 53 54 54 47 52 53 52 52 52 52 51 51 51 51 51 51 52 51 51 50 49 50 47 45 42 37 37 39 37 40 43 42 39 35 34 34 36
55 53 53 52 52 52 53 53 53 53 52 52 51 51 51 51 51 50 50 50 50 50 50 51 51 50 49 49 44 42 35 31 35 32 39 41 46 44 40 38 35 34 36
52 50 50 49 49 49 49 50 50 50 50 51 51 50 50 50 49 49 49 49 49 49 49 50 50 49 49 47 41 35 32 31 33 31 34 46 46 45 41 41 37 34 34
MSLP
1007.47 1008.43 1009.22 1009.94 1010.45 1010.79 1010.95 1011.69 1011.94 1012.70 1013.37 1013.62 1013.76 1013.86 1014.02 1014.10 1014.30 1014.34 1014.30 1013.98 1013.68 1013.62 1013.53 1013.41 1013.36 1013.51 1013.31 1013.07 1012.84 1012.48 1012.05 1011.56 1011.21 1010.84 1010.63 1010.02 1009.49 1008.93 1008.05 1007.52 1006.90 1006.36 1005.76
1007.84 1008.47 1009.31 1010.00 1010.57 1010.99 1011.48 1011.76 1012.50 1012.98 1013.14 1013.46 1013.79 1014.20 1014.29 1014.08 1014.34 1014.25 1014.20 1013.92 1013.67 1013.62 1013.52 1013.63 1013.42 1013.07 1013.23 1013.10 1012.84 1012.44 1012.21 1012.15 1011.89 1011.29 1010.74 1009.91 1009.17 1008.35 1007.60 1006.99 1006.35 1005.90 1005.29
1008.19 1008.90 1009.64 1010.09 1010.88 1011.46 1011.84 1012.23 1012.84 1013.23 1013.59 1013.93 1014.09 1014.32 1014.07 1014.16 1014.36 1014.22 1014.17 1014.21 1014.11 1013.76 1013.72 1013.46 1013.18 1013.05 1013.20 1013.19 1013.20 1012.86 1012.50 1012.18 1011.80 1011.13 1010.06 1009.58 1008.65 1007.91 1007.09 1006.51 1005.98 1005.50 1004.79
1008.43 1009.14 1010.06 1010.63 1011.27 1011.77 1012.36 1012.53 1013.09 1013.50 1013.70 1014.03 1014.09 1014.18 1014.19 1014.43 1014.40 1014.67 1015.06 1014.82 1014.49 1013.79 1013.69 1013.60 1013.03 1012.80 1013.06 1013.33 1013.23 1012.97 1012.59 1012.26 1011.62 1010.83 1009.86 1009.04 1008.41 1007.76 1007.17 1006.26 1005.49 1005.25 1004.56
1009.02 1009.98 1010.66 1011.35 1011.82 1012.01 1012.66 1013.00 1013.51 1013.85 1014.07 1014.17 1014.25 1014.31 1014.75 1015.07 1016.22 1016.49 1016.12 1015.57 1015.02 1014.24 1013.55 1013.19 1012.92 1013.21 1013.31 1013.72 1013.66 1013.14 1012.85 1012.10 1011.42 1010.67 1009.59 1008.87 1008.15 1007.60 1007.15 1006.42 1005.80 1005.09 1004.39
1010.03 1010.52 1011.13 1011.82 1012.27 1012.75 1013.16 1013.54 1013.80 1014.11 1014.45 1014.63 1014.94 1015.36 1015.73 1016.47 1017.49 1017.28 1017.07 1016.27 1015.26 1014.24 1013.45 1013.08 1013.56 1013.30 1013.52 1013.80 1013.73 1013.26 1012.85 1011.98 1011.15 1010.40 1009.38 1008.64 1007.92 1007.55 1007.13 1006.68 1006.18 1005.36 1004.01
1010.71 1011.17 1011.86 1012.46 1012.76 1013.10 1013.42 1013.95 1014.68 1015.32 1015.52 1015.63 1015.75 1015.91 1016.51 1017.15 1017.86 1017.74 1017.29 1016.39 1015.26 1013.91 1013.50 1013.67 1013.96 1013.70 1014.01 1014.10 1013.28 1012.55 1011.28 1010.72 1010.60 1010.26 1009.42 1008.71 1008.10 1007.71 1007.43 1006.74 1006.12 1005.46 1004.33
1011.44 1011.87 1012.34 1012.83 1013.41 1013.79 1014.30 1015.07 1015.63 1015.89 1016.04 1016.02 1016.12 1016.31 1017.02 1017.85 1018.41 1018.00 1017.22 1015.67 1014.61 1014.01 1014.16 1014.28 1014.20 1014.29 1014.37 1014.48 1013.58 1011.77 1010.98 1010.47 1010.30 1010.18 1009.78 1009.02 1008.52 1007.85 1007.46 1006.72 1005.80 1004.84 1003.92
1012.46 1012.72 1013.19 1013.54 1014.12 1014.52 1015.02 1015.75 1015.99 1016.00 1016.04 1016.11 1016.44 1016.76 1017.38 1018.34 1018.43 1018.27 1017.55 1015.90 1015.11 1015.15 1014.84 1014.55 1014.69 1014.76 1014.88 1014.64 1013.61 1012.05 1011.21 1010.51 1010.45 1009.92 1009.40 1008.85 1008.11 1007.40 1006.78 1006.16 1005.01 1004.27 1003.33
1013.46 1013.92 1014.09 1014.44 1014.89 1015.57 1015.97 1016.24 1016.46 1016.39 1016.52 1016.65 1017.02 1017.44 1017.95 1018.15 1018.83 1018.82 1018.47 1017.03 1016.34 1016.24 1015.14 1015.19 1015.25 1015.26 1015.00 1014.65 1013.93 1012.45 1011.83 1011.36 1010.82 1009.24 1008.57 1008.04 1007.54 1006.99 1006.51 1005.87 1005.52 1004.70 1003.40
1014.27 1014.54 1015.01 1015.52 1015.97 1016.42 1016.87 1017.12 1017.22 1017.25 1017.47 1017.55 1017.79 1017.98 1018.06 1018.52 1018.74 1019.08 1018.85 1018.14 1017.68 1016.88 1015.72 1015.28 1015.13 1015.27 1015.15 1014.79 1014.03 1013.14 1012.58 1011.86 1010.39 1009.60 1008.69 1007.89 1007.38 1006.80 1006.37 1006.06 1005.63 1005.07 1003.73
1014.93 1015.29 1015.84 1016.13 1016.24 1016.82 1017.02 1017.11 1017.21 1017.18 1017.08 1017.21 1017.17 1017.27 1017.77 1018.20 1018.78 1019.10 1019.00 1018.68 1018.21 1017.46 1016.48 1016.11 1015.87 1015.47 1015.04 1014.37 1013.58 1012.88 1012.27 1011.67 1010.75 1010.34 1009.61 1008.52 1007.77 1007.16 1006.63 1006.31 1005.52 1004.28 1003.45
1015.48 1015.91 1016.25 1016.56 1016.85 1016.98 1017.15 1017.44 1017.43 1017.55 1017.23 1017.24 1017.19 1017.08 1017.48 1017.73 1018.26 1018.96 1018.84 1018.35 1017.92 1017.35 1016.75 1016.25 1015.49 1014.90 1014.37 1013.63 1012.96 1011.91 1011.56 1010.90 1010.64 1010.40 1010.12 1009.53 1008.98 1008.30 1007.50 1006.49 1005.38 1004.19 1002.91
1015.92 1016.18 1016.54 1016.71 1017.04 1017.60 1017.55 1018.21 1019.16 1019.35 1018.96 1018.71 1018.65 1018.30 1018.33 1018.58 1019.31 1019.58 1018.95 1018.08 1017.45 1016.82 1016.44 1015.57 1014.65 1014.06 1013.67 1013.04 1012.17 1011.67 1011.22 1011.19 1010.82 1010.61 1010.64 1010.36 1009.61 1008.51 1007.60 1006.68 1005.40 1004.10 1002.72
1016.20 1016.30 1016.37 1016.83 1017.06 1018.02 1018.90 1019.46 1019.95 1021.42 1021.10 1020.54 1020.57 1019.87 1020.15 1020.21 1020.57 1020.55 1019.88 1018.87 1017.96 1017.05 1016.45 1014.39 1014.01 1013.73 1013.37 1012.81 1012.29 1011.91 1011.64 1011.50 1011.07 1010.68 1010.91 1010.51 1009.69 1008.78 1007.77 1006.83 1005.67 1004.44 1003.38
1016.38 1016.84 1017.01 1016.91 1017.16 1017.65 1018.64 1020.23 1021.39 1022.01 1022.37 1022.23 1022.22 1021.80 1021.00 1021.33 1020.81 1020.11 1019.47 1018.81 1017.83 1016.64 1015.47 1015.02 1014.67 1014.34 1013.84 1013.31 1012.75 1012.30 1012.17 1011.89 1011.65 1011.00 1011.40 1011.15 1010.26 1009.24 1008.08 1006.90 1005.88 1004.69 1003.34
1017.26 1017.30 1017.59 1017.49 1017.68 1018.02 1018.40 1018.82 1019.97 1022.26 1022.57 1022.55 1022.06 1021.73 1021.58 1021.25 1020.63 1019.90 1019.11 1018.40 1017.89 1016.92 1016.29 1015.83 1015.41 1014.97 1014.39 1013.92 1013.49 1013.09 1012.80 1012.43 1012.16 1011.57 1012.06 1011.49 1010.59 1009.53 1008.39 1007.06 1005.79 1004.57 1002.98
1018.39 1018.69 1018.10 1018.19 1018.19 1018.32 1018.72 1019.15 1019.60 1019.94 1020.10 1021.04 1021.66 1021.34 1021.17 1020.91 1020.54 1019.98 1019.14 1018.21 1017.72 1017.39 1016.96 1016.57 1016.23 1015.69 1015.12 1014.70 1014.18 1013.69 1013.37 1012.91 1012.58 1012.25 1012.45 1011.82 1010.90 1009.87 1008.46 1007.11 1005.84 1004.58 1003.14
1018.39 1018.60 1018.65 1019.11 1019.41 1019.25 1019.18 1019.49 1019.72 1019.93 1020.11 1020.25 1020.66 1020.90 1020.89 1020.32 1019.96 1019.77 1019.25 1018.60 1018.07 1017.69 1017.40 1016.93 1016.68 1016.27 1015.78 1015.35 1014.92 1014.37 1013.97 1013.58 1013.35 1012.88 1012.78 1012.09 1011.12 1010.02 1008.65 1007.33 1005.91 1004.58 1003.19
1020.12 1020.29 1019.65 1019.34 1019.45 1019.47 1019.64 1019.80 1020.10 1020.27 1020.30 1020.41 1020.74 1021.28 1020.94 1019.83 1019.52 1019.44 1019.41 1019.05 1018.72 1018.38 1018.11 1017.64 1017.19 1016.87 1016.46 1016.11 1015.66 1015.17 1014.58 1014.16 1013.87 1013.46 1012.91 1012.25 1011.43 1010.43 1008.96 1007.50 1006.26 1004.53 1002.79
1020.04 1020.27 1020.56 1019.99 1020.02 1020.09 1020.22 1020.37 1020.46 1020.49 1020.50 1020.53 1020.71 1021.53 1021.29 1020.63 1020.09 1019.91 1019.74 1019.56 1019.14 1018.76 1018.55 1018.26 1017.76 1017.47 1017.18 1016.80 1016.49 1016.09 1015.51 1015.22 1015.10 1014.37 1013.28 1012.43 1011.37 1010.14 1009.23 1007.84 1006.24 1005.23 1003.50
1020.15 1020.30 1020.52 1020.60 1020.82 1021.07 1021.00 1020.83 1020.86 1020.85 1020.87 1020.86 1020.81 1020.96 1021.05 1020.56 1020.41 1020.40 1020.34 1020.18 1019.83 1019.44 1019.22 1018.89 1018.47 1018.19 1017.91 1017.46 1017.37 1017.15 1016.56 1016.51 1016.10 1015.07 1013.97 1012.84 1011.52 1010.16 1009.42 1008.23 1007.13 1005.78 1004.38
1020.70 1020.76 1020.89 1021.02 1021.19 1021.51 1021.20 1021.19 1021.48 1021.38 1021.10 1021.07 1021.12 1021.15 1021.12 1021.01 1020.90 1020.92 1020.81 1020.68 1020.39 1020.05 1019.83 1019.54 1019.17 1018.92 1018.68 1018.13 1018.22 1018.29 1017.85 1017.88 1017.35 1015.84 1014.88 1013.24 1011.74 1010.45 1009.53 1008.79 1007.70 1006.25 1005.02
1021.39 1021.38 1021.43 1021.74 1022.03 1021.66 1021.82 1021.68 1021.73 1021.96 1021.78 1021.53 1021.62 1021.65 1021.65 1021.60 1021.47 1021.43 1021.29 1021.10 1020.87 1020.54 1020.29 1019.99 1019.75 1019.57 1019.23 1018.66 1018.98 1019.17 1019.00 1019.10 1017.98 1016.45 1015.49 1013.60 1011.80 1010.85 1010.17 1009.51 1008.57 1007.55 1006.07
1022.11 1022.18 1022.30 1022.40 1022.51 1022.45 1022.29 1022.41 1022.39 1022.33 1022.24 1022.19 1022.22 1022.27 1022.21 1022.12 1022.06 1021.96 1021.80 1021.65 1021.41 1020.95 1020.71 1020.35 1020.07 1019.87 1019.59 1019.17 1019.80 1019.84 1019.79 1019.30 1018.29 1017.30 1015.62 1013.88 1012.19 1011.30 1010.79 1009.78 1009.13 1007.88 1006.79
1023.03 1023.29 1023.45 1023.58 1023.55 1023.55 1023.48 1023.36 1023.23 1023.20 1023.03 1022.87 1022.82 1022.98 1022.87 1022.69 1022.71 1022.53 1022.34 1022.18 1021.87 1021.36 1021.13 1020.69 1020.42 1020.14 1019.77 1019.69 1020.43 1020.29 1019.88 1019.26 1018.36 1017.21 1015.95 1013.49 1012.60 1011.72 1011.14 1009.92 1009.41 1008.61 1007.54
Wind_Speed
15 15 15 13 12 11 12 11 10 8 6 5 3 2 1 3 4 6 7 8 6 8 8 9 10 8 7 6 7 8 9 9 9 11 12 14 16 16 15 13 14 13 12
16 16 15 14 13 12 11 11 9 7 4 4 3 2 4 4 5 6 8 8 8 8 8 7 9 7 9 7 7 7 7 8 8 12 12 13 14 15 13 16 12 12 12
16 16 15 14 12 12 11 10 7 6 5 4 3 3 4 5 7 6 7 8 9 8 7 7 9 9 8 6 7 8 7 7 9 10 12 12 12 12 13 14 13 12 12
16 15 14 13 11 11 9 8 6 3 2 1 2 5 5 6 7 8 10 11 12 11 9 9 10 7 6 10 10 9 9 10 11 10 10 11 11 13 11 11 10 8 10
15 14 13 11 10 10 8 7 5 2 2 3 4 5 8 6 10 10 11 12 13 13 11 11 7 10 11 6 6 9 10 12 11 11 11 10 10 10 11 10 11 10 10
14 13 12 10 10 8 6 5 3 3 6 7 7 6 9 8 11 13 13 12 13 13 9 8 9 11 11 10 12 14 14 14 14 11 11 10 14 10 10 10 10 11 9
13 12 11 9 9 8 7 8 9 7 6 5 5 6 10 9 13 14 17 12 12 10 8 8 8 8 9 12 16 17 16 12 17 10 12 12 15 14 14 14 12 11 11
13 12 10 10 9 8 10 7 6 5 4 4 5 5 9 10 15 17 22 12 11 9 10 9 8 8 10 13 15 13 12 12 12 11 12 15 14 15 13 13 14 12 10
12 11 9 9 9 8 11 6 6 4 6 5 5 8 8 9 17 19 19 12 11 10 9 9 7 8 12 13 14 13 14 13 15 12 12 15 16 19 16 9 7 8 6
11 9 10 10 9 9 8 8 7 6 7 6 7 8 9 7 15 17 17 9 10 9 8 3 14 11 13 15 12 12 14 15 16 18 15 13 12 12 14 9 8 10 8
10 10 9 10 9 9 9 8 7 6 6 5 4 3 5 6 9 13 16 10 9 9 7 7 7 15 14 14 11 7 10 13 15 15 14 12 12 12 11 12 12 10 10
10 10 10 9 8 7 7 5 5 3 3 4 3 3 3 3 12 11 12 11 12 9 8 8 8 13 14 13 10 10 13 14 11 12 14 13 15 15 14 14 16 14 11
10 10 9 8 7 7 7 9 8 8 7 7 7 6 5 6 8 11 10 12 9 8 6 10 16 14 11 8 10 17 11 8 10 12 13 14 13 13 15 14 13 16 15
9 9 8 7 9 9 8 9 9 9 8 8 8 8 8 9 10 11 10 9 9 6 10 10 11 11 12 8 8 8 10 11 11 11 13 12 13 14 12 11 12 12 11
7 6 6 7 6 9 10 9 9 9 9 8 8 8 9 9 10 12 11 10 11 13 16 7 9 9 9 10 10 11 11 12 12 11 11 14 13 13 12 12 11 11 9
7 6 5 5 6 6 9 9 13 12 10 11 9 9 6 5 13 16 15 15 19 19 7 9 10 10 11 11 12 12 12 13 13 13 12 13 13 13 13 12 10 10 10
7 6 6 6 6 6 6 5 8 6 6 7 8 7 3 8 14 16 18 17 9 13 10 10 10 11 11 12 12 12 13 13 15 12 11 13 13 12 15 13 12 11 11
9 4 7 7 6 7 7 6 6 7 5 7 5 7 4 7 10 12 16 10 9 9 9 10 10 11 12 12 12 13 13 13 14 12 12 13 13 13 14 13 12 13 13
7 7 7 8 7 6 6 6 6 6 6 6 8 6 8 7 9 7 9 10 10 10 10 10 11 11 12 12 12 13 14 12 13 12 12 12 12 13 14 13 13 18 16
9 7 5 6 6 7 6 7 6 6 6 7 7 10 9 10 9 10 10 10 9 10 11 11 11 11 12 13 13 14 14 13 14 14 13 13 12 12 14 16 14 16 14
7 7 3 7 7 7 7 7 6 6 7 6 6 7 7 7 9 10 10 10 10 10 11 11 11 11 12 12 13 14 15 14 15 14 14 14 14 13 14 14 14 13 14
7 7 7 7 7 8 7 6 6 6 7 7 7 5 6 7 9 9 9 10 10 10 10 11 10 11 12 13 13 15 15 16 16 16 15 15 14 13 14 14 14 13 13
6 6 7 6 6 3 5 6 7 7 7 7 8 8 8 8 9 9 9 9 10 10 10 10 10 11 12 12 13 15 15 15 15 15 15 15 14 15 13 15 16 16 15
7 7 7 7 6 6 7 6 6 4 6 8 8 8 8 8 9 10 9 10 10 10 10 10 10 14 13 12 13 15 14 15 15 15 21 16 14 16 14 14 14 17 14
8 7 7 7 7 6 5 6 7 7 7 7 8 8 8 8 9 9 9 10 10 10 11 11 10 14 16 17 19 23 17 19 19 20 16 18 18 19 16 12 16 15 17
6 6 6 6 6 6 7 7 7 7 8 7 7 8 8 8 9 9 9 11 11 10 13 10 12 17 18 15 18 18 17 19 20 24 19 14 15 15 15 16 22 15 18
Wind_Direction
122 120 123 121 117 115 110 109 112 107 157 144 134 181 286 310 325 323 309 284 302 301 307 302 323 298 287 300 306 300 298 299 302 299 305 302 304 297 297 299 297 301 292
123 119 120 119 115 109 111 110 124 135 132 109 69 302 307 327 320 308 302 317 315 321 321 309 283 317 320 298 275 268 289 302 294 289 288 289 291 291 293 298 296 293 291
117 116 113 110 107 108 108 111 120 129 133 168 208 281 326 330 306 300 321 339 315 317 300 309 300 313 306 305 314 300 302 301 296 288 294 295 297 304 302 294 291 288 292
112 109 107 104 108 105 107 110 107 95 95 332 320 315 309 320 335 15 346 334 319 315 312 303 302 314 323 313 307 306 315 308 303 294 293 297 304 306 292 292 291 282 284
103 99 98 99 101 98 95 93 94 79 18 323 307 309 42 20 29 6 347 327 316 307 304 300 354 352 335 11 315 313 308 305 304 298 295 297 296 304 306 308 297 300 291
102 100 100 101 97 96 95 87 81 30 21 352 28 25 38 56 34 23 356 322 306 301 306 328 347 307 352 9 328 293 284 285 287 291 294 294 298 301 308 303 306 298 296
99 96 95 93 87 87 81 63 39 37 23 35 39 30 69 57 24 11 352 310 300 304 314 359 333 343 10 337 323 307 282 266 241 277 300 308 311 315 311 302 295 288 287
88 84 80 81 80 74 71 65 59 60 47 41 38 9 82 57 27 14 345 313 306 354 0 339 325 341 22 343 324 315 334 328 2 334 319 309 305 303 296 290 285 278 273
83 79 80 78 67 60 64 55 41 32 46 22 30 34 44 52 34 13 347 334 352 350 337 347 21 353 3 339 322 332 337 336 342 312 281 276 278 282 268 288 286 287 285
79 79 68 65 68 61 51 50 36 21 44 15 21 52 56 32 46 18 -0 348 351 336 326 91 59 19 352 339 327 337 343 341 326 325 334 332 328 327 321 326 328 322 287
85 83 83 86 74 68 66 51 46 46 42 38 32 8 60 31 56 26 3 359 350 327 331 341 351 9 338 325 314 345 327 314 333 341 334 335 341 338 336 332 326 307 301
96 92 88 69 64 87 81 84 71 39 134 137 178 144 63 45 58 29 354 338 344 330 333 337 332 317 304 297 298 307 285 291 353 345 342 340 343 337 334 328 316 305 301
96 96 91 92 99 95 70 40 35 15 8 17 4 13 24 20 24 20 347 320 340 335 328 298 282 286 282 319 312 300 279 346 348 346 346 340 334 328 324 318 314 312 309
102 102 89 67 75 43 44 72 41 23 12 31 12 10 9 16 14 354 349 345 345 337 321 294 264 256 258 285 321 359 355 2 346 353 345 332 326 330 326 325 321 322 314
99 96 109 96 86 113 68 35 83 53 37 35 16 15 12 9 2 331 330 334 335 323 319 353 14 3 2 1 1 4 3 356 353 350 345 335 330 329 327 326 318 314 308
105 77 28 70 75 66 135 110 61 103 113 102 85 35 54 30 326 325 322 322 317 311 348 18 16 5 7 2 1 1 2 357 352 347 355 335 330 330 326 325 317 315 311
72 94 101 64 69 64 59 42 131 141 141 161 129 97 18 307 315 321 320 321 283 333 21 17 13 8 5 3 0 2 357 356 348 353 351 333 330 329 331 326 323 319 314
97 1 69 51 53 62 59 54 49 34 55 123 166 62 344 286 298 302 309 342 24 28 20 19 10 5 5 1 358 359 353 353 352 355 346 334 333 332 331 328 325 321 316
68 55 75 79 59 44 63 57 44 43 38 42 37 3 9 324 256 270 355 18 15 19 13 10 11 4 3 360 359 357 354 354 351 352 341 334 333 333 331 330 323 320 310
84 9 25 69 69 63 54 50 48 39 33 26 51 18 11 346 24 26 19 17 16 15 10 3 7 4 4 1 360 357 353 357 351 348 339 337 334 332 335 332 332 328 326
97 89 354 64 54 51 49 43 38 33 27 33 46 39 322 324 24 16 17 10 12 8 11 3 3 5 6 360 2 356 357 357 351 340 340 336 330 337 341 335 333 332 330
69 63 62 62 60 50 28 38 32 30 31 25 20 57 271 20 18 18 17 9 8 5 7 1 359 7 5 357 11 356 0 356 347 337 342 331 330 338 341 340 337 338 336
73 73 68 64 73 89 59 46 36 18 20 28 21 19 16 15 14 18 11 9 6 1 6 1 0 4 3 355 19 360 5 355 339 333 337 326 327 343 348 343 342 342 342
72 65 66 71 39 45 15 34 39 57 9 19 21 16 15 10 11 10 9 5 2 358 3 360 4 2 357 358 19 1 7 352 335 342 330 327 327 345 347 342 341 339 337
50 49 47 43 32 25 35 27 26 15 16 16 15 10 8 6 10 1 8 3 357 354 359 357 1 357 356 11 12 0 1 347 339 335 332 317 347 349 346 343 346 341 345
75 60 53 38 33 29 21 14 12 21 1 9 6 10 358 4 6 350 7 357 351 353 352 353 355 357 353 18 9 353 358 346 343 333 330 337 351 350 349 350 351 346 343